Find Starlink 2381

NORAD ID: 47800 Int'l Des: 2021-018 Owner: SPXS Country: US Constellation: starlink operational
LEOCIRCULARSTARLINK_TYPE

現在のビュー

3D地球を読み込み中...

About Starlink 2381

Starlink 2381 (NORAD 47800) is a starlink constellation satellite (v1.0) launched Mar 11, 2021 by SPXS of US. It operates in LEO, CIRCULAR, STARLINK_TYPE orbit with a mass of 260.00 kg.

Starlink 2381について

説明を読み込み中...

次回通過

Passes for default location (London). Set your location on the main map for personalized predictions.

高度履歴

Loading altitude history...

軌道要素

1 47800U 21018P 26167.20578779 -.00000108 00000-0 82701-5 0 9991
2 47800 53.1615 140.7537 0001088 74.3526 285.7595 15.31687742291853
Epoch: Jun 16, 2026 • Age: 15 hours

現在のステータス

高度 485.4 km
速度 7.62 km/s
衛星直下点 -41.92°S, 153.8°E
打ち上げ日 Mar 11, 2021
運用期間 5.2 years
タイプ internet

技術仕様

分類 Payload
質量 260.00 kg
乾燥質量 248.00 kg
総質量 260.00 kg
長さ 0.20 m
直径 2.80 m
スパン 9.00 m
形状 Box + pan
製造者 SPXS
バスタイプ Starlink
フェーズステータス In Orbit
所有者/国 SPXS/US

Most Searched